Date String (YYYY-MM-DD hh:mm:ss) UTC,Instrument flags,absolute air pressure of the measurement (hPa),sample flow rate (lpm),inlet stack bypass flow (lpm),air temperature of the measurement (°C),ambient temperature measured by the external sensor (°C),aerosol sample conditioner tube jacket temperature (°C),OPC LED temperature (°C),internal box temperature (°C),relative humidity of the measurement (%),span deviation,mass concentration of particles derived from Lorenz-Mie calculation of OPC scattering (μg/m³),mass concentration of particles derived from Lorenz-Mie calculation of OPC scattering (μg/m³),mass concentration of particles derived from Lorenz-Mie calculation of OPC scattering (μg/m³)
DateTimeUTC,F1_M11,P_M11,Q1_M11,Q2_M11,T1_M11,T2_M11,T3_M11,T4_M11,T5_M11,U1_M11,ZSPAN_M11,X0_M11,X2_M11,X1_M11
2024-02-18 09:00:00,SystemResetWarning,0828.6,4.99,000.00,018.8,018.9,000.0,027.0,020.7,09.6,0000.0,0001.75,0001.34,0001.11
2024-02-18 09:01:00,SystemResetWarning,0828.6,5.00,000.00,018.7,018.7,000.0,027.0,020.5,09.6,0000.0,0001.64,0001.26,0001.05
2024-02-18 09:02:00,SystemResetWarning,0828.6,5.00,000.00,018.7,018.5,000.0,027.0,020.3,09.4,0000.0,0001.53,0001.21,0001.01
2024-02-18 09:03:00,SystemResetWarning,0828.5,5.00,000.00,018.6,018.4,000.0,027.0,020.2,09.4,0000.0,0001.50,0001.19,0000.99
2024-02-18 09:04:00,SystemResetWarning,0828.5,5.00,000.00,018.6,018.2,000.0,026.9,020.2,09.4,0000.0,0002.34,0001.18,0000.98
2024-02-18 09:05:00,SystemResetWarning,0828.4,5.00,000.00,018.6,018.1,000.0,026.9,020.1,09.4,0000.0,0002.88,0001.17,0000.98
2024-02-18 09:06:00,SystemResetWarning,0828.4,5.00,000.00,018.5,017.9,000.0,026.9,020.0,09.4,0000.0,0002.97,0001.16,0000.98
2024-02-18 09:07:00,SystemResetWarning,0828.4,5.00,000.00,018.5,017.8,000.0,026.9,020.0,09.3,0000.0,0002.98,0001.17,0000.99
2024-02-18 09:08:00,SystemResetWarning,0828.4,5.00,000.00,018.4,017.7,000.0,026.9,020.0,09.3,0000.0,0002.95,0001.15,0000.99
2024-02-18 09:09:00,SystemResetWarning,0828.4,5.00,000.00,018.4,017.7,000.0,026.9,020.0,09.2,0000.0,0003.08,0001.16,0000.97
2024-02-18 09:10:00,SystemResetWarning,0828.4,5.00,000.00,018.4,017.6,000.0,026.9,020.0,09.0,0000.0,0003.07,0001.14,0000.95
2024-02-18 09:11:00,SystemResetWarning,0828.4,5.00,000.00,018.4,017.6,000.0,026.9,020.0,09.0,0000.0,0003.16,0001.13,0000.94
2024-02-18 09:12:00,SystemResetWarning,0828.3,5.00,000.00,018.4,017.6,000.0,026.9,020.0,09.0,0000.0,0003.29,0001.13,0000.93
2024-02-18 09:13:00,SystemResetWarning,0828.3,5.01,000.00,018.4,017.6,000.0,026.9,020.0,09.1,0000.0,0003.27,0001.11,0000.91
2024-02-18 09:14:00,SystemResetWarning,0828.3,4.99,000.00,018.3,017.6,000.0,026.9,020.0,09.5,0000.0,0003.20,0001.06,0000.89
2024-02-18 09:15:00,SystemResetWarning,0828.3,5.01,000.00,018.4,018.1,000.0,027.0,020.4,09.8,0000.0,0002.37,0001.01,0000.86
2024-02-18 09:16:00,SystemResetWarning,0828.4,5.01,000.00,018.7,018.9,000.0,027.1,020.9,10.2,0000.0,0001.68,0000.96,0000.82
2024-02-18 09:17:00,SystemResetWarning,0828.3,4.99,000.00,018.8,019.0,000.0,027.1,020.9,10.4,0000.0,0001.51,0000.91,0000.78
2024-02-18 09:18:00,SystemResetWarning,0828.3,5.00,000.00,018.7,018.8,000.0,027.0,020.6,10.7,0000.0,0001.48,0000.88,0000.75
2024-02-18 09:19:00,SystemResetWarning,0828.2,5.01,000.00,018.7,018.6,000.0,027.0,020.4,10.9,0000.0,0001.48,0000.87,0000.72
2024-02-18 09:20:00,SystemResetWarning,0828.2,5.00,000.00,018.7,018.5,000.0,027.0,020.2,11.2,0000.0,0001.35,0000.82,0000.69
2024-02-18 09:21:00,SystemResetWarning,0828.2,5.00,000.00,018.6,018.3,000.0,026.9,020.1,11.3,0000.0,0001.31,0000.81,0000.69
2024-02-18 09:22:00,SystemResetWarning,0828.2,5.00,000.00,018.6,018.2,000.0,026.9,020.1,11.5,0000.0,0001.27,0000.80,0000.68
2024-02-18 09:23:00,SystemResetWarning,0828.2,4.99,000.00,018.5,018.0,000.0,026.9,020.0,11.5,0000.0,0001.06,0000.78,0000.68
2024-02-18 09:24:00,SystemResetWarning,0828.2,5.00,000.00,018.5,017.9,000.0,026.9,020.0,11.6,0000.0,0001.05,0000.78,0000.68
2024-02-18 09:25:00,SystemResetWarning,0828.2,5.00,000.00,018.5,017.8,000.0,026.9,020.0,11.6,0000.0,0001.04,0000.80,0000.71
2024-02-18 09:26:00,SystemResetWarning,0828.1,5.00,000.00,018.4,017.8,000.0,026.9,020.0,11.7,0000.0,0002.43,0000.85,0000.76
2024-02-18 09:27:00,SystemResetWarning,0828.1,5.00,000.00,018.4,017.7,000.0,026.9,020.0,11.7,0000.0,0002.61,0000.95,0000.84
2024-02-18 09:28:00,SystemResetWarning,0828.1,5.00,000.00,018.4,017.7,000.0,026.9,020.0,11.8,0000.0,0002.74,0001.07,0000.95
2024-02-18 09:29:00,SystemResetWarning,0828.2,5.00,000.00,018.4,017.6,000.0,026.9,020.0,11.8,0000.0,0002.85,0001.18,0001.06
2024-02-18 09:30:00,SystemResetWarning,0828.1,5.00,000.00,018.3,017.6,000.0,026.9,020.0,11.8,0000.0,0002.99,0001.31,0001.18
2024-02-18 09:31:00,SystemResetWarning,0828.1,5.01,000.00,018.4,017.8,000.0,026.9,020.2,11.7,0000.0,0003.14,0001.45,0001.32
2024-02-18 09:32:00,SystemResetWarning,0828.2,5.00,000.00,018.5,018.6,000.0,027.1,020.7,11.5,0000.0,0003.25,0001.57,0001.44
2024-02-18 09:33:00,SystemResetWarning,0828.2,4.99,000.00,018.8,019.1,000.0,027.1,021.0,11.3,0000.0,0003.40,0001.71,0001.56
2024-02-18 09:34:00,SystemResetWarning,0828.1,4.99,000.00,018.8,019.0,000.0,027.0,020.8,11.2,0000.0,0003.61,0001.83,0001.67
2024-02-18 09:35:00,SystemResetWarning,0828.1,5.01,000.00,018.8,018.8,000.0,027.0,020.6,11.1,0000.0,0003.73,0001.93,0001.78
2024-02-18 09:36:00,SystemResetWarning,0828.0,5.01,000.00,018.7,018.6,000.0,027.0,020.4,11.0,0000.0,0003.87,0002.04,0001.87
2024-02-18 09:37:00,SystemResetWarning,0828.1,5.01,000.00,018.7,018.4,000.0,027.0,020.3,11.0,0000.0,0003.03,0002.16,0001.94
2024-02-18 09:38:00,SystemResetWarning,0828.1,5.00,000.00,018.6,018.3,000.0,026.9,020.2,11.0,0000.0,0002.73,0002.20,0002.00
2024-02-18 09:39:00,SystemResetWarning,0828.1,5.00,000.00,018.6,018.1,000.0,026.9,020.1,11.0,0000.0,0002.78,0002.23,0002.03
2024-02-18 09:40:00,SystemResetWarning,0828.1,5.01,000.00,018.5,018.0,000.0,026.9,020.1,11.0,0000.0,0002.89,0002.27,0002.04
2024-02-18 09:41:00,SystemResetWarning,0828.1,4.99,000.00,018.5,017.9,000.0,026.9,020.1,11.0,0000.0,0002.92,0002.27,0002.04
2024-02-18 09:42:00,SystemResetWarning,0828.1,5.00,000.00,018.5,017.8,000.0,026.9,020.0,11.0,0000.0,0002.95,0002.27,0002.02
2024-02-18 09:43:00,SystemResetWarning,0828.1,4.99,000.00,018.4,017.8,000.0,026.9,020.0,11.0,0000.0,0003.62,0002.27,0002.01
2024-02-18 09:44:00,SystemResetWarning,0828.1,5.00,000.00,018.4,017.7,000.0,026.9,020.0,11.0,0000.0,0004.72,0002.27,0001.99
2024-02-18 09:45:00,SystemResetWarning,0828.1,5.01,000.00,018.4,017.7,000.0,026.9,020.0,11.0,0000.0,0004.62,0002.23,0001.95
2024-02-18 09:46:00,SystemResetWarning,0828.1,5.01,000.00,018.4,017.6,000.0,026.9,020.0,11.0,0000.0,0004.58,0002.20,0001.92
2024-02-18 09:47:00,SystemResetWarning,0828.1,4.99,000.00,018.4,017.6,000.0,026.9,020.0,11.0,0000.0,0004.62,0002.17,0001.88
2024-02-18 09:48:00,SystemResetWarning,0828.1,4.99,000.00,018.3,017.6,000.0,026.9,020.0,11.0,0000.0,0004.47,0002.09,0001.82
2024-02-18 09:49:00,SystemResetWarning,0828.0,4.99,000.00,018.3,017.6,000.0,026.9,020.0,10.9,0000.0,0004.87,0002.06,0001.77
2024-02-18 09:50:00,SystemResetWarning,0828.1,5.01,000.00,018.4,018.0,000.0,027.0,020.3,10.8,0000.0,0004.95,0002.05,0001.73
2024-02-18 09:51:00,SystemResetWarning,0828.1,5.01,000.00,018.6,018.8,000.0,027.1,020.9,10.7,0000.0,0004.85,0001.99,0001.68
2024-02-18 09:52:00,SystemResetWarning,0828.1,5.00,000.00,018.8,019.1,000.0,027.1,020.9,10.5,0000.0,0004.73,0001.94,0001.64
2024-02-18 09:53:00,SystemResetWarning,0828.0,4.98,000.00,018.8,018.9,000.0,027.0,020.7,10.5,0000.0,0004.70,0001.92,0001.62
2024-02-18 09:54:00,SystemResetWarning,0827.8,5.00,000.00,018.7,018.7,000.0,027.0,020.5,10.4,0000.0,0004.64,0001.86,0001.60
2024-02-18 09:55:00,SystemResetWarning,0827.9,5.01,000.00,018.7,018.5,000.0,027.0,020.3,10.5,0000.0,0003.88,0001.84,0001.58
2024-02-18 09:56:00,SystemResetWarning,0827.8,5.01,000.00,018.7,018.4,000.0,027.0,020.3,10.5,0000.0,0003.96,0001.86,0001.58
2024-02-18 09:57:00,SystemResetWarning,0827.9,4.99,000.00,018.6,018.2,000.0,026.9,020.2,10.5,0000.0,0003.94,0001.86,0001.57
2024-02-18 09:58:00,SystemResetWarning,0827.8,4.99,000.00,018.6,018.1,000.0,026.9,020.1,10.5,0000.0,0004.26,0001.83,0001.57
2024-02-18 09:59:00,SystemResetWarning,0827.8,5.00,000.00,018.5,018.0,000.0,026.9,020.1,10.4,0000.0,0004.43,0001.81,0001.57
